Las Vegas, NM

9:55 AM MDT on July 23, 2016 (GMT -0600)
Las Vegas Municipal

Weather History for KLVS - July, 2013

Change the Weather History Date:

Thursday, July 4, 2013

  Actual Average Record
Temperature  
Mean Temperature 65 °F -  
Max Temperature 82 °F 83 °F 94 °F (1980)
Min Temperature 50 °F 52 °F 46 °F (1997)
Growing Degree Days 15 (Base 50)    
Moisture  
Dew Point 46 °F    
Average Humidity 52    
Maximum Humidity 83    
Minimum Humidity 21    
Precipitation  
Precipitation 0.01 in - - ()
Sea Level Pressure  
Sea Level Pressure 29.91 in    
Wind  
Wind Speed 6 mph (SE)    
Max Wind Speed 18 mph    
Max Gust Speed 28 mph    
Visibility 10 miles    
Events Rain , Thunderstorm    
Averages and records for this station are not official NWS values.
T = Trace of Precipitation, MM = Missing Value Source: NWS Daily Summary

Daily Weather History Graph

Daily Weather History Graph

Search for Another Location

Airport or City:

Trip Planner

Search our weather history database for the weather conditions in past years. The results will help you decide how hot, cold, wet, or windy it might be!

Date:

Astronomy

Jul. 04, 2013 Rise Set
Actual Time 5:50 AM MDT 8:19 PM MDT
Civil Twilight 5:20 AM MDT 8:49 PM MDT
Nautical Twilight 4:43 AM MDT 9:26 PM MDT
Astronomical Twilight 4:02 AM MDT 10:07 PM MDT
Moon 3:05 AM MDT (7/4) 5:28 PM MDT (7/4)
Length of Visible Light 15h 29m
Length of Day
14h 29m
Waning Crescent, 11% of the Moon is Illuminated
Jul 4
Waning Crescent
Jul 8
New
Jul 15
First Quarter
Jul 22
Full
Jul 29
Last Quarter

Hourly Weather History & Observations

Time (MDT) Temp. Dew Point Humidity Pressure Visibility Wind Dir Wind Speed Gust Speed Precip Events Conditions
12:53 AM 57.0 °F 48.9 °F 74% 29.84 in 10.0 mi WNW 3.5 mph - N/A   Clear
1:53 AM 59.0 °F 48.0 °F 67% 29.84 in 10.0 mi NNE 5.8 mph - N/A   Clear
2:53 AM 54.0 °F 48.0 °F 80% 29.86 in 10.0 mi ESE 3.5 mph - N/A   Clear
3:53 AM 55.0 °F 46.9 °F 74% 29.85 in 10.0 mi North 5.8 mph - N/A   Clear
4:53 AM 52.0 °F 45.0 °F 77% 29.86 in 10.0 mi North 5.8 mph - N/A   Clear
5:53 AM 50.0 °F 45.0 °F 83% 29.86 in 10.0 mi North 8.1 mph - N/A   Clear
6:53 AM 57.0 °F 45.0 °F 64% 29.86 in 10.0 mi North 3.5 mph - N/A   Clear
7:53 AM 60.1 °F 48.9 °F 67% 29.88 in 10.0 mi East 4.6 mph - N/A   Clear
8:53 AM 64.0 °F 48.9 °F 58% 29.90 in 10.0 mi Variable 3.5 mph - N/A   Clear
9:53 AM 66.9 °F 46.9 °F 49% 29.90 in 10.0 mi Calm Calm - N/A   Clear
10:53 AM 73.0 °F 44.1 °F 35% 29.87 in 10.0 mi Calm Calm - N/A   Clear
11:53 AM 77.0 °F 41.0 °F 28% 29.85 in 10.0 mi East 8.1 mph - N/A   Clear
12:53 PM 79.0 °F 36.0 °F 21% 29.83 in 10.0 mi East 12.7 mph 19.6 mph N/A   Clear
1:53 PM 79.0 °F 36.0 °F 21% 29.82 in 10.0 mi Variable 3.5 mph 18.4 mph N/A   Clear
2:53 PM 80.1 °F 44.1 °F 28% 29.83 in 10.0 mi South 10.4 mph 19.6 mph N/A   Scattered Clouds
3:45 PM 78.8 °F 42.8 °F 28% 30.14 in 10.0 mi South 15.0 mph 19.6 mph N/A   Mostly Cloudy
3:53 PM 78.1 °F 43.0 °F 29% 29.82 in 10.0 mi SSE 13.8 mph 20.7 mph N/A   Mostly Cloudy
4:07 PM 77.0 °F 42.8 °F 29% 30.13 in 10.0 mi SSE 6.9 mph - N/A Thunderstorm Mostly Cloudy
4:43 PM 66.2 °F 48.2 °F 52% 30.15 in 10.0 mi West 18.4 mph 27.6 mph 0.00 in Rain , Thunderstorm Light Thunderstorms and Rain
4:53 PM 68.0 °F 48.0 °F 49% 29.89 in 10.0 mi SW 9.2 mph 20.7 mph 0.00 in Thunderstorm Thunderstorm
5:12 PM 69.8 °F 46.4 °F 43% 30.18 in 10.0 mi Variable 6.9 mph - 0.00 in Rain Light Rain
5:30 PM 66.2 °F 48.2 °F 52% 30.14 in 7.0 mi SSW 12.7 mph 27.6 mph 0.01 in Rain , Thunderstorm Light Rain
5:38 PM 68.0 °F 46.4 °F 46% 30.13 in 10.0 mi SSE 15.0 mph 21.9 mph 0.01 in Rain , Thunderstorm Light Rain
5:53 PM 66.9 °F 48.9 °F 52% 29.87 in 10.0 mi Variable 3.5 mph - 0.01 in   Mostly Cloudy
6:53 PM 73.0 °F 46.9 °F 39% 29.83 in 10.0 mi NW 5.8 mph - N/A   Clear
7:53 PM 70.0 °F 48.9 °F 47% 29.82 in 10.0 mi Calm Calm - N/A   Clear
8:53 PM 64.0 °F 48.9 °F 58% 29.84 in 10.0 mi Calm Calm - N/A   Clear
9:53 PM 61.0 °F 52.0 °F 72% 29.88 in 10.0 mi South 5.8 mph - N/A   Mostly Cloudy
10:53 PM 62.1 °F 48.9 °F 62% 29.86 in 10.0 mi SSE 8.1 mph - N/A   Clear
11:53 PM 61.0 °F 51.1 °F 70% 29.87 in 10.0 mi North 10.4 mph - N/A   Scattered Clouds